Погода в Пурвокерто

Индонезия     7°25′33″S   109°15′06″E
темп.,
°C
ветер,
м/с
пор.,
м/с
влажн.,
%
обл.,
%
осадки,
мм/ч
давл.,
гПа
погр.,
м
2 марта, вт
вт201:00+24ююз009185 3.0 101024
04:00+24с119185 0.8 100925
07:00+25сз118778 0.8 101090
10:00+31юз126172 0.0 10111009
13:00+31ююз226776 3.4 10091010
16:00+28юз3482100 7.8 1008652
19:00+25с1292100 17.9 101059
22:00+24ссв2494100 3.5 1012132
3 марта, ср
ср301:00+23св2390100 3.6 1010118
04:00+23ссв2284100 0.0 100943
07:00+24с1181100 0.0 101026
10:00+27зсз017199 0.0 1011194
13:00+32зюз125191 0.0 10091233
16:00+30ю115975 0.1 10081151
19:00+25ююв118671 0.5 101065
22:00+24ссв119047 1.7 101228
4 марта, чт
чт401:00+24с119053 7.1 101225
04:00+23с118842 0.4 101124
07:00+25ссв118462 0.4 101271
10:00+32ю115999 0.0 1012803
13:00+33ююз225292 0.0 10101297
16:00+29ююз3472100 1.1 1008454
19:00+25юз1186100 1.9 101127
22:00+24с1188100 0.0 101224
5 марта, пт
пт501:00+24с1189100 0.0 101125
04:00+23ссв119159 0.0 101024
07:00+25ссв118679 0.0 101254
10:00+32юз125497 0.0 10121071
13:00+33ююз224966 0.1 10091390
16:00+30ююз446122 0.6 1007660
19:00+25зюз118424 2.6 101025
22:00+25зсз118685 0.3 101124
6 марта, сб
сб601:00+24зсз118974 0.8 101024
04:00+24з119085 3.6 100924
07:00+25зюз008681 5.1 101085
10:00+30ююз126545 2.7 1010881
13:00+30юз227059 9.4 1008848
16:00+27ю1286100 12.0 1008224
19:00+25с1189100 18.4 101024
22:00+24ссв1191100 4.1 101248